sat.trackr.live / text

‹ back to catalog

ONEWEB-0279

NORAD 48997 · 2021-060AG

PAYLOAD ACTIVE UNKNOWN

§ Identity

Operator
Country
UK
Launch date
2021-07-01
Launch site
VOSTO
Launch vehicle
Mass (kg)
RCS (m²)

Purposes: comms

External: N2YO · Heavens-Above · Gunter

§ Orbital elements

Epoch: 2026-09-20T04:39:18.658080Z

Period
109.37 min
Inclination
87.9157°
Eccentricity
0.0002156
Mean motion
13.16593192 rev/d
Perigee alt
1,196.1 km
Apogee alt
1,199.4 km
Semi-major
7,575.9 km
B*
6.7154e-5
RAAN
209.9111°
Arg perigee
71.3968°
Mean anomaly
288.7397°
Rev number
25,212

§ Raw data

ONEWEB-02791 48997U 21060AG  26263.19396595  .00000039  00000+0  67154-4 0  99902 48997  87.9157 209.9111 0002156  71.3968 288.7397 13.16593192252123

JSON: /api/v1/satellites/48997 · /tle

For live sub-satellite position, see the globe view (requires WebGL).

§ Visibility from observer

Set your observer location to see the next 7 days of passes ≥ 10°. The values pass through the URL so the page stays shareable.

No JS? Fill the form by hand. The geolocation button needs JavaScript.